FW4526 Weather Reports


Display with metric or nautical units.
time (UTC)temp
F
wind
direction
speed
MPH
gust
MPH
rain 1hr
in
rain 24hr
in
rain mn
in
humidity
%
barometer
mb
20260504081502 43 180 0.0 4.0 0.00 0.00 0.00 85 1013.4
20260504044551 40 265 0.0 2.0 0.00 0.00 0.00 85 1014.1
20260504043042 38 265 1.0 2.0 0.00 0.00 0.00 88 1014.1
20260504041541 38 265 0.0 3.0 0.00 0.00 0.00 85 1014.1
20260504040048 37 265 0.0 1.0 0.00 0.00 0.00 86 1014.0
20260504034553 38 265 0.0 0.0 0.00 0.00 0.00 84 1014.0
20260504033032 39 265 0.0 0.0 0.00 0.00 0.00 82 1013.9
20260504031531 40 265 0.0 2.0 0.00 0.00 0.00 82 1014.0
20260504030040 39 265 1.0 2.0 0.00 0.00 0.00 83 1014.0
20260504024524 40 265 0.0 1.0 0.00 0.00 0.00 81 1013.9
20260504023022 41 265 0.0 0.0 0.00 0.00 0.00 78 1013.6
20260504021519 42 265 1.0 3.0 0.00 0.00 0.00 79 1013.5
20260504020017 42 264 0.0 0.0 0.00 0.00 0.00 73 1013.4
20260504014530 43 264 0.0 0.0 0.00 0.00 0.00 71 1013.2
20260504013007 44 264 0.0 0.0 0.00 0.00 0.00 69 1013.0
20260504011505 45 264 0.0 1.0 0.00 0.00 0.00 65 1012.9
20260504010002 47 264 0.0 1.0 0.00 0.00 0.00 62 1012.9
20260504004621 48 264 0.0 1.0 0.00 0.00 0.00 59 1012.8
20260504003053 49 264 0.0 1.0 0.00 0.00 0.00 59 1012.7
20260504001553 50 264 0.0 2.0 0.00 0.00 0.00 58 1012.7
20260504000049 51 264 0.0 2.0 0.00 0.00 0.00 55 1012.7
20260503234547 54 264 1.0 3.0 0.00 0.00 0.00 54 1012.5
20260503233047 57 264 1.0 4.0 0.00 0.00 0.00 46 1012.5
20260503231545 59 317 1.0 6.0 0.00 0.00 0.00 39 1012.4
20260503230048 60 296 1.0 10.0 0.00 0.00 0.00 36 1012.4
20260503224514 60 286 2.0 8.0 0.00 0.00 0.00 35 1012.4
20260503223014 62 303 2.0 5.0 0.00 0.00 0.00 33 1012.4
20260503221509 62 294 2.0 6.0 0.00 0.00 0.00 36 1012.4
20260503220008 62 261 2.0 6.0 0.00 0.00 0.00 35 1012.4
20260503214507 62 324 5.0 10.0 0.00 0.00 0.00 35 1012.4
20260503213006 62 317 5.0 9.0 0.00 0.00 0.00 33 1012.5
20260503211502 62 319 3.0 7.0 0.00 0.00 0.00 35 1012.6
20260503210001 61 281 3.0 12.0 0.00 0.00 0.00 36 1012.7
20260503204609 61 315 3.0 10.0 0.00 0.00 0.00 37 1012.8
20260503203105 61 321 3.0 8.0 0.00 0.00 0.00 35 1012.9
20260503201558 61 277 5.0 11.0 0.00 0.00 0.00 37 1012.9
20260503200057 60 317 4.0 14.0 0.00 0.00 0.00 39 1013.2
20260503194551 60 323 5.0 12.0 0.00 0.00 0.00 39 1013.5
20260503193054 60 225 4.0 8.0 0.00 0.00 0.00 37 1013.9
20260503191546 60 304 3.0 11.0 0.00 0.00 0.00 43 1014.1
20260503190045 59 328 6.0 13.0 0.00 0.00 0.00 42 1014.1
20260503184554 59 328 4.0 14.0 0.00 0.00 0.00 48 1014.1
20260503183059 58 5 4.0 11.0 0.00 0.00 0.00 41 1014.5
20260503181510 57 244 1.0 12.0 0.00 0.00 0.00 44 1014.4
20260503180019 57 288 3.0 10.0 0.00 0.00 0.00 47 1014.6
20260503174507 57 334 8.0 16.0 0.00 0.00 0.00 45 1014.6
20260503173005 57 54 4.0 10.0 0.00 0.00 0.00 44 1014.7
20260503171501 56 191 4.0 12.0 0.00 0.00 0.00 45 1014.8